Location: Proctor
(47.8934°N, 114.3048°W)
Time: 22:04:59
(UTC+00:00)

Tiros 1 despin weight - Pass Details

Date: 29 June 2024
Orbit: 576 x 620 km, 48.2° (Epoch: 19 July)

Event Time Altitude Azimuth Distance (km) Brightness Sun altitude
Rises 17:08:49 0° 226° (SW) 2,860 ? 51.0°
Reaches altitude 10° 17:11:12 10° 219° (SW) 1,965 ? 51.4°
Maximum altitude 17:15:25 39° 151° (SSE) 930 ? 52.0°
Drops below altitude 10° 17:19:40 10° 82° (E) 1,987 ? 52.7°
Sets 17:22:05 0° 75° (ENE) 2,897 ? 53.0°
